Location: Albany
(35.0000°S, 118.0000°E)
Time: 11:11:49
(UTC-04:00)

Amateur Radio Satellites - All Passes

Search period start: 30 September 2016 10:41
Search period end: 01 October 2016 10:41
Location: Albany, 35.0000°S, 118.0000°E

Satellite Date Start Highest point End Downlink Frequencies (MHz)
Time Altitude Azimuth
BEESAT 2 30 Sep 10:48:13 10:49:34 12° 288° (WNW) 10:50:56 435.950
CUBEBUG 1 30 Sep 10:49:46 10:52:19 15° 87° (E) 10:54:52 437.445
NANOSAT C BR1 30 Sep 10:51:34 10:55:48 62° 105° (ESE) 11:00:06 145.865
VELOX 1 30 Sep 10:53:26 10:55:06 12° 88° (E) 10:56:45 145.980
ESTCUBE 1 30 Sep 11:03:32 11:07:43 35° 82° (E) 11:11:52 437.505/2401.250
50 SAT 30 Sep 11:16:55 11:19:31 19° 85° (E) 11:22:06 437.505
HUMSAT D 30 Sep 11:17:00 11:20:03 20° 249° (WSW) 11:23:04 437.325/437.525
QB50P2 30 Sep 11:17:41 11:21:53 54° 280° (W) 11:26:10 145.880/145.840
SPROUT 30 Sep 11:18:32 11:20:17 12° 88° (E) 11:22:02 437.525
POLYITAN 1 30 Sep 11:19:51 11:24:04 54° 280° (W) 11:28:22 437.675
AUBIESAT-1 30 Sep 11:30:22 11:32:58 15° 83° (E) 11:35:31 437.475
UKube-1 30 Sep 11:37:10 11:40:06 17° 86° (E) 11:43:00 .
AISAT 30 Sep 11:44:01 11:48:28 51° 80° (E) 11:52:50 437.250
BUGSAT 1 30 Sep 11:44:44 11:48:54 84° 281° (WNW) 11:53:12 437.445
JAS-2 30 Sep 11:46:10 11:52:38 57° 281° (W) 11:58:24 435.910
PHONESAT 2.4 30 Sep 11:50:21 11:53:00 27° 175° (S) 11:55:38 2401.200-2431.200
AIST 2 30 Sep 11:53:44 11:57:52 83° 296° (WNW) 12:01:56 435.215
DUCHIFAT 1 30 Sep 11:54:38 11:58:09 25° 276° (W) 12:01:43 145.980
QB50P1 30 Sep 12:00:24 12:03:27 19° 275° (W) 12:06:33 145.935-145.965
M-CUBED/EXP-1 PRIME 30 Sep 12:08:24 12:13:03 50° 76° (ENE) 12:17:31 437.505
DX 1 30 Sep 12:09:55 12:14:19 57° 79° (E) 12:18:39 434.975-435.025
POPSAT HIP 1 30 Sep 12:15:17 12:17:23 13° 273° (W) 12:19:29 437.405
Gurwin Techsat 1B 30 Sep 12:16:14 12:19:52 19° 115° (ESE) 12:23:31 435.225
CUBEBUG 1 30 Sep 12:24:30 12:28:45 41° 253° (WSW) 12:32:56 437.445
VELOX 1 30 Sep 12:27:25 12:31:49 53° 254° (WSW) 12:36:11 145.980
TISAT 1 30 Sep 12:28:24 12:30:42 14° 87° (E) 12:33:00 437.305
Oscar 19 30 Sep 12:33:55 12:38:58 59° 106° (ESE) 12:44:05 437.125/150
ESTCUBE 1 30 Sep 12:41:04 12:44:13 19° 248° (WSW) 12:47:23 437.505/2401.250
PCSat 30 Sep 12:42:45 12:48:11 68° 118° (ESE) 12:53:34 145.827
50 SAT 30 Sep 12:50:07 12:52:54 21° 251° (WSW) 12:55:40 437.505
Cosmos 2491 30 Sep 12:50:10 12:56:39 24° 98° (E) 13:03:09 435.465 / 435.565
SPROUT 30 Sep 12:52:14 12:56:27 47° 254° (WSW) 13:00:36 437.525
YUBILEINY 30 Sep 12:55:34 13:04:07 47° 102° (ESE) 13:12:32 435.215
AUBIESAT-1 30 Sep 13:03:04 13:07:36 49° 249° (WSW) 13:11:59 437.475
UKube-1 30 Sep 13:12:12 13:16:11 34° 251° (WSW) 13:20:08 .
AISAT 30 Sep 13:22:13 13:24:26 14° 245° (WSW) 13:26:38 437.250
PHONESAT 2.4 30 Sep 13:26:24 13:29:22 69° 160° (SSE) 13:32:20 2401.200-2431.200
ITAMSAT 1 30 Sep 13:34:00 13:38:25 28° 112° (ESE) 13:42:52 435.822/435.867
M-CUBED/EXP-1 PRIME 30 Sep 13:44:05 13:47:03 17° 241° (WSW) 13:49:58 437.505
DX 1 30 Sep 13:48:26 13:49:57 12° 244° (WSW) 13:51:29 434.975-435.025
Gurwin Techsat 1B 30 Sep 13:54:13 13:59:22 49° 280° (W) 14:04:36 435.225
AO-7 30 Sep 13:57:03 14:04:30 38° 117° (ESE) 14:12:01 29.400- 29.500
Cosmos 2504 30 Sep 13:58:06 14:06:17 47° 103° (ESE) 14:13:49 435.465 / 435.565
TISAT 1 30 Sep 14:02:27 14:06:30 40° 253° (WSW) 14:10:29 437.305
ITUPSAT 1 30 Sep 14:06:51 14:11:14 33° 82° (E) 14:15:31 437.325
SO-50 30 Sep 14:07:08 14:11:32 67° 239° (WSW) 14:16:02 436.795
Oscar 19 30 Sep 14:16:09 14:18:38 13° 272° (W) 14:21:06 437.125/150
SWISSCUBE 30 Sep 14:18:06 14:22:48 51° 80° (E) 14:27:26 437.505
PCSat 30 Sep 14:28:27 14:30:54 13° 283° (WNW) 14:33:21 145.827
BEESAT 30 Sep 14:30:41 14:35:29 64° 79° (ENE) 14:40:12 436.000
Cosmos 2491 30 Sep 14:44:02 14:52:42 63° 261° (W) 15:01:25 435.465 / 435.565
YUBILEINY 30 Sep 14:52:54 15:00:31 33° 265° (W) 15:08:07 435.215
PHONESAT 2.4 30 Sep 15:03:08 15:05:14 18° 325° (NW) 15:07:18 2401.200-2431.200
AIST 1 30 Sep 15:07:18 15:11:20 33° 102° (ESE) 15:15:20
ITAMSAT 1 30 Sep 15:13:07 15:17:44 31° 277° (W) 15:22:24 435.822/435.867
MOZHAYETS 4 30 Sep 15:31:38 15:36:06 47° 81° (E) 15:40:30
KKS-1 30 Sep 15:36:08 15:40:12 31° 83° (E) 15:44:12 437.445
O/OREOS (USA 219) 30 Sep 15:44:12 15:48:21 34° 115° (ESE) 15:52:28 437.305
ITUPSAT 1 30 Sep 15:45:08 15:48:48 22° 248° (WSW) 15:52:27 437.325
AO-7 30 Sep 15:49:11 15:57:01 45° 281° (W) 16:05:00 29.400- 29.500
HORYU 2 30 Sep 15:51:02 15:54:53 28° 110° (ESE) 15:58:46 437.375
Cosmos 2504 30 Sep 15:52:04 15:59:13 31° 264° (W) 16:05:55 435.465 / 435.565
SWISSCUBE 30 Sep 15:57:27 16:00:06 15° 245° (WSW) 16:02:43 437.505
STARS 30 Sep 16:01:52 16:05:44 28° 83° (E) 16:09:34 437.465
BEESAT 30 Sep 16:10:46 16:12:39 12° 244° (WSW) 16:14:32 436.000
GOMX 1 30 Sep 16:41:49 16:44:59 20° 112° (ESE) 16:48:18 467.674
LilacSat-2 30 Sep 16:45:24 16:47:59 17° 111° (ESE) 16:50:34 437.200
AIST 1 30 Sep 16:45:43 16:48:36 17° 267° (W) 16:51:28
DOVE 4 30 Sep 16:50:43 16:51:44 11° 118° (ESE) 16:52:44 437.250
CUBESAT XI-V 30 Sep 16:59:08 17:03:44 53° 81° (E) 17:08:19 437.345
NOAA 18 30 Sep 16:59:55 17:04:35 28° 113° (ESE) 17:09:17 137.9125
BRITE-PL 30 Sep 17:06:44 17:10:54 80° 281° (W) 17:15:14 437.365/2234.400
NOAA 15 30 Sep 17:07:09 17:12:12 48° 108° (ESE) 17:17:17 137.62
MOZHAYETS 4 30 Sep 17:10:17 17:12:49 15° 246° (WSW) 17:15:19
KKS-1 30 Sep 17:13:07 17:16:31 21° 248° (WSW) 17:19:54 437.445
RS-15 30 Sep 17:20:05 17:29:03 27° 77° (ENE) 17:37:40 29.354- 29.394
GONETS M04 30 Sep 17:21:04 17:25:25 14° 115° (ESE) 17:29:45
O/OREOS (USA 219) 30 Sep 17:24:21 17:27:27 18° 280° (W) 17:30:31 437.305
HORYU 2 30 Sep 17:27:46 17:31:22 23° 276° (W) 17:35:00 437.375
CUTE-I 30 Sep 17:32:56 17:38:18 70° 106° (ESE) 17:43:44 437.470
Cubesat XI-IV 30 Sep 17:33:45 17:39:07 71° 106° (ESE) 17:44:34 437.490
STARS 30 Sep 17:38:23 17:41:54 23° 249° (WSW) 17:45:23 437.465
HO-68 30 Sep 17:39:08 17:43:27 17° 122° (ESE) 17:47:47 435.675
CINEMA 3 30 Sep 17:41:27 17:42:14 10° 118° (ESE) 17:43:01 145.822/145.860
ISS 30 Sep 18:10:39 18:13:58 69° 45° (NE) 18:17:19 145.825
LilacSat-2 30 Sep 18:18:36 18:22:01 28° 277° (W) 18:25:28 437.200
JUGNU 30 Sep 18:18:39 18:21:36 14° 11° (N) 18:24:32 437.505
GOMX 1 30 Sep 18:19:07 18:22:51 29° 276° (W) 18:26:49 467.674
DOVE 4 30 Sep 18:24:15 18:28:39 67° 280° (W) 18:33:25 437.250
CUSAT 1 30 Sep 18:33:24 18:37:26 61° 262° (W) 18:40:39 437.405
SEEDS 30 Sep 18:36:30 18:39:20 18° 111° (ESE) 18:42:11 437.485
CUBESAT XI-V 30 Sep 18:38:18 18:40:37 14° 246° (WSW) 18:42:56 437.345
CUTE 1.7 + AOD 2 30 Sep 18:39:47 18:43:28 28° 109° (ESE) 18:47:10 437.475
NOAA 18 30 Sep 18:40:02 18:45:02 34° 278° (W) 18:50:06 137.9125
CANX-2 30 Sep 18:41:26 18:45:19 34° 107° (ESE) 18:49:14 2200.000
NOAA 15 30 Sep 18:48:44 18:52:11 18° 274° (W) 18:55:39 137.62
DANDE 30 Sep 18:50:31 18:56:09 57° 83° (E) 19:00:23 436.750
AAUSAT CUBESAT 2 30 Sep 18:51:07 18:53:05 13° 113° (ESE) 18:55:03 437.432
Cosmos 2499 30 Sep 18:52:50 19:00:54 53° 101° (ESE) 19:08:15 435.465 / 435.565
CINEMA 3 30 Sep 19:13:52 19:18:33 77° 281° (W) 19:23:31 145.822/145.860
GONETS M04 30 Sep 19:14:40 19:23:32 84° 97° (E) 19:32:23
STRAND 1 30 Sep 19:14:46 19:19:53 60° 79° (E) 19:24:54 437.568
CUTE-I 30 Sep 19:16:44 19:18:47 12° 271° (W) 19:20:50 437.470
Cubesat XI-IV 30 Sep 19:17:37 19:19:38 12° 271° (W) 19:21:40 437.490
HO-68 30 Sep 19:23:02 19:30:14 83° 286° (WNW) 19:37:32 435.675
RS-15 30 Sep 19:28:46 19:40:22 74° 239° (WSW) 19:51:32 29.354- 29.394
COMPASS 1 30 Sep 19:36:04 19:40:11 60° 105° (ESE) 19:44:21 437.405
AO-85 30 Sep 19:47:45 19:51:44 74° 241° (WSW) 19:56:04 145.980
ISS 30 Sep 19:48:47 19:50:47 15° 208° (SSW) 19:52:48 145.825
FUNcube-1 30 Sep 19:51:48 19:55:41 27° 109° (ESE) 19:59:36 145.935
CUBEBUG 2 30 Sep 20:00:48 20:05:31 87° 284° (WNW) 20:10:23 437.445
JUGNU 30 Sep 20:05:59 20:09:52 18° 1° (N) 20:13:45 437.505
SEEDS 30 Sep 20:10:57 20:14:45 32° 277° (W) 20:18:35 437.485
UWE-3 30 Sep 20:12:25 20:17:05 82° 102° (ESE) 20:21:52 435.000/436.395/437.385
PRISM 30 Sep 20:14:22 20:17:28 20° 84° (E) 20:20:33 437.425
CUTE 1.7 + AOD 2 30 Sep 20:16:06 20:19:16 20° 275° (W) 20:22:28 437.475
CANX-2 30 Sep 20:18:31 20:21:14 16° 274° (W) 20:23:58 2200.000
AAUSAT CUBESAT 2 30 Sep 20:24:10 20:28:08 43° 279° (W) 20:32:08 437.432
Oscar 11 30 Sep 20:27:01 20:31:21 70° 104° (ESE) 20:35:45 145.826/435.025
HUMSAT D 30 Sep 20:30:15 20:32:27 14° 113° (ESE) 20:34:41 437.325/437.525
ZACube-1 30 Sep 20:34:46 20:39:23 89° 268° (W) 20:44:04 437.345
DANDE 30 Sep 20:37:07 20:38:40 11° 257° (WSW) 20:40:08 436.750
Cosmos 2499 30 Sep 20:47:01 20:53:20 26° 263° (W) 20:59:18 435.465 / 435.565
STRAND 1 30 Sep 20:55:44 20:58:29 15° 244° (WSW) 21:01:13 437.568
SRMSAT 30 Sep 21:08:44 21:12:19 16° 8° (N) 21:15:53 437.500
GONETS M04 30 Sep 21:14:09 21:19:08 17° 259° (W) 21:24:09
HO-68 30 Sep 21:16:46 21:18:48 11° 270° (W) 21:20:52 435.675
DELFI C3 30 Sep 21:16:59 21:20:57 76° 282° (WNW) 21:24:58 145.870
FUNcube-1 30 Sep 21:28:04 21:31:49 24° 275° (W) 21:35:37 145.935
UNISAT 6 30 Sep 21:37:46 21:41:27 24° 85° (E) 21:45:03 437.425
RS-15 30 Sep 21:46:54 21:54:58 22° 214° (SW) 22:02:55 29.354- 29.394
PRISM 30 Sep 21:49:10 21:52:43 27° 251° (WSW) 21:56:15 437.425
JUGNU 30 Sep 21:54:56 21:58:09 15° 351° (N) 22:01:22 437.505
ESTCUBE 1 30 Sep 22:00:16 22:03:46 23° 111° (ESE) 22:07:17 437.505/2401.250
HUMSAT D 30 Sep 22:03:30 22:07:38 45° 279° (W) 22:11:49 437.325/437.525
ANTELSAT 30 Sep 22:12:22 22:16:55 61° 79° (E) 22:21:15 437.575/2403.000
UKube-1 30 Sep 22:31:02 22:31:34 10° 116° (ESE) 22:32:05 .
TIGRISAT 30 Sep 22:31:56 22:36:32 84° 257° (WSW) 22:40:56 435.000
AISAT 30 Sep 22:38:17 22:42:07 30° 109° (ESE) 22:46:00 437.250
NANOSAT C BR1 30 Sep 22:41:09 22:43:08 13° 88° (E) 22:45:06 145.865
SO-50 30 Sep 22:41:15 22:45:51 44° 123° (ESE) 22:50:26 436.795
M-CUBED/EXP-1 PRIME 30 Sep 22:51:46 22:55:15 32° 114° (ESE) 22:59:02 437.505
SRMSAT 30 Sep 22:56:46 23:00:47 18° 358° (N) 23:04:48 437.500
BEESAT 2 30 Sep 22:58:01 23:00:44 18° 70° (ENE) 23:03:27 435.950
JAS-2 30 Sep 22:59:33 23:03:12 18° 85° (E) 23:06:59 435.910
DX 1 30 Sep 23:02:16 23:06:08 32° 109° (ESE) 23:10:04 434.975-435.025
QB50P2 30 Sep 23:06:10 23:10:01 30° 83° (E) 23:13:46 145.880/145.840
POLYITAN 1 30 Sep 23:08:22 23:12:11 30° 83° (E) 23:15:57 437.675
UNISAT 6 30 Sep 23:14:16 23:18:04 26° 250° (WSW) 23:21:46 437.425
CUBEBUG 1 30 Sep 23:16:33 23:20:53 78° 283° (WNW) 23:25:19 437.445
VELOX 1 30 Sep 23:20:54 23:25:19 89° 110° (ESE) 23:29:49 145.980
50 SAT 30 Sep 23:22:20 23:25:56 86° 283° (WNW) 23:29:35 437.505
BUGSAT 1 30 Sep 23:30:51 23:33:51 18° 86° (E) 23:36:49 437.445
BEESAT 3 30 Sep 23:31:47 23:35:44 77° 242° (WSW) 23:39:42 437.485
ESTCUBE 1 30 Sep 23:36:29 23:40:23 29° 277° (W) 23:44:20 437.505/2401.250
DUCHIFAT 1 30 Sep 23:41:07 23:45:25 66° 79° (E) 23:49:37 145.980
SPROUT 30 Sep 23:41:46 23:46:04 82° 101° (E) 23:50:28 437.525
AUBIESAT-1 30 Sep 23:45:25 23:49:16 66° 286° (WNW) 23:53:30 437.475
QB50P1 30 Sep 23:46:55 23:51:17 90° 265° (W) 23:55:33 145.935-145.965
ANTELSAT 30 Sep 23:51:37 23:52:58 11° 244° (WSW) 23:54:19 437.575/2403.000
POPSAT HIP 1 01 Oct 00:00:50 00:05:08 62° 255° (WSW) 00:09:21 437.405
UKube-1 01 Oct 00:02:42 00:06:59 63° 282° (WNW) 00:11:21 .
RS-15 01 Oct 00:10:52 00:13:50 11° 176° (S) 00:16:48 29.354- 29.394
NANOSAT C BR1 01 Oct 00:14:56 00:19:03 43° 253° (WSW) 00:23:05 145.865
AISAT 01 Oct 00:15:15 00:18:33 21° 275° (W) 00:21:55 437.250
SO-50 01 Oct 00:22:42 00:25:59 18° 289° (WNW) 00:29:16 436.795
M-CUBED/EXP-1 PRIME 01 Oct 00:27:25 00:29:52 16° 277° (W) 00:32:27 437.505
BEESAT 2 01 Oct 00:34:43 00:38:17 31° 235° (SW) 00:41:53 435.950
DX 1 01 Oct 00:39:18 00:42:21 19° 275° (W) 00:45:27 434.975-435.025
ISS 01 Oct 00:41:39 00:44:16 21° 148° (SSE) 00:46:52 145.825
QB50P2 01 Oct 00:42:27 00:45:33 19° 248° (WSW) 00:48:37 145.880/145.840
JAS-2 01 Oct 00:43:23 00:48:26 46° 252° (WSW) 00:53:49 435.910
POLYITAN 1 01 Oct 00:44:38 00:47:44 19° 248° (WSW) 00:50:48 437.675
SRMSAT 01 Oct 00:46:25 00:49:14 13° 348° (NNW) 00:52:03 437.500
Oscar 19 01 Oct 00:49:16 00:53:43 27° 84° (E) 00:58:07 437.125/150
TISAT 1 01 Oct 00:50:01 00:54:16 86° 286° (WNW) 00:58:36 437.305
Cosmos 2491 01 Oct 00:58:27 01:07:05 57° 101° (E) 01:15:38 435.465 / 435.565
BUGSAT 1 01 Oct 01:05:26 01:09:14 31° 251° (WSW) 01:12:59 437.445
ITUPSAT 1 01 Oct 01:10:29 01:14:34 28° 111° (ESE) 01:18:40 437.325
SWISSCUBE 01 Oct 01:21:10 01:25:40 41° 108° (ESE) 01:30:13 437.505
BEESAT 01 Oct 01:33:35 01:38:14 50° 107° (ESE) 01:42:55 436.000
PCSat 01 Oct 01:40:58 01:43:28 13° 77° (ENE) 01:45:57 145.827
AIST 2 01 Oct 01:47:52 01:51:50 44° 65° (ENE) 01:55:51 435.215
YUBILEINY 01 Oct 01:51:50 02:00:21 60° 89° (E) 02:09:01 435.215
ITAMSAT 1 01 Oct 01:52:01 01:53:57 12° 89° (E) 01:55:54 435.822/435.867
AO-7 01 Oct 02:05:38 02:08:31 12° 90° (E) 02:11:23 29.400- 29.500
Gurwin Techsat 1B 01 Oct 02:13:35 02:19:00 87° 75° (ENE) 02:24:20 435.225
ISS 01 Oct 02:17:45 02:20:50 36° 312° (NW) 02:23:52 145.825
RS-15 01 Oct 02:23:09 02:31:59 27° 140° (SE) 02:40:49 29.354- 29.394
Oscar 19 01 Oct 02:28:23 02:32:57 31° 249° (WSW) 02:37:30 437.125/150
MOZHAYETS 4 01 Oct 02:30:15 02:34:20 31° 109° (ESE) 02:38:26
Cosmos 2504 01 Oct 02:30:52 02:38:50 44° 92° (E) 02:47:06 435.465 / 435.565
KKS-1 01 Oct 02:31:31 02:34:47 20° 112° (ESE) 02:38:04 437.445
ITUPSAT 1 01 Oct 02:48:15 02:52:17 26° 276° (W) 02:56:22 437.325
STARS 01 Oct 02:56:00 02:58:56 17° 113° (ESE) 03:01:53 437.465
Cosmos 2491 01 Oct 02:56:22 03:03:16 27° 263° (W) 03:10:10 435.465 / 435.565
SWISSCUBE 01 Oct 03:00:23 03:03:35 18° 274° (W) 03:06:48 437.505
BEESAT 01 Oct 03:13:40 03:16:14 14° 273° (W) 03:18:51 436.000
PCSat 01 Oct 03:20:49 03:26:11 67° 242° (WSW) 03:31:38 145.827
AIST 2 01 Oct 03:27:56 03:30:32 16° 230° (SW) 03:33:08 435.215
ITAMSAT 1 01 Oct 03:28:37 03:33:50 67° 254° (WSW) 03:38:59 435.822/435.867
AIST 1 01 Oct 03:33:36 03:36:55 22° 91° (E) 03:40:18
YUBILEINY 01 Oct 03:50:39 03:57:38 26° 251° (WSW) 04:04:44 435.215
AO-7 01 Oct 03:53:51 04:02:20 79° 74° (ENE) 04:10:42 29.400- 29.500
Gurwin Techsat 1B 01 Oct 03:57:07 03:58:07 10° 241° (WSW) 03:59:07 435.225
CUBESAT XI-V 01 Oct 03:59:12 04:03:24 35° 108° (ESE) 04:07:38 437.345
KKS-1 01 Oct 04:07:04 04:11:04 32° 278° (W) 04:15:09 437.445
MOZHAYETS 4 01 Oct 04:07:54 04:11:28 22° 275° (W) 04:15:04
AO-85 01 Oct 04:21:19 04:26:15 41° 124° (ESE) 04:31:19 145.980
Cosmos 2504 01 Oct 04:24:22 04:32:12 38° 255° (WSW) 04:40:22 435.465 / 435.565
STARS 01 Oct 04:30:51 04:34:56 37° 279° (W) 04:39:07 437.465
RS-15 01 Oct 04:34:47 04:45:44 86° 298° (WNW) 04:56:54 29.354- 29.394
CUSAT 1 01 Oct 05:07:17 05:10:41 46° 99° (E) 05:15:01 437.405
AIST 1 01 Oct 05:10:54 05:14:22 23° 256° (WSW) 05:17:53
BRITE-PL 01 Oct 05:13:24 05:18:29 45° 81° (E) 05:23:48 437.365/2234.400
HORYU 2 01 Oct 05:20:51 05:25:24 87° 76° (ENE) 05:29:51 437.375
NOAA 15 01 Oct 05:26:12 05:30:26 24° 84° (E) 05:34:38 137.62
NOAA 18 01 Oct 05:26:23 05:29:27 15° 88° (E) 05:32:29 137.9125
DANDE 01 Oct 05:32:27 05:34:19 16° 101° (E) 05:36:22 436.750
CUBESAT XI-V 01 Oct 05:37:34 05:40:49 19° 274° (W) 05:44:07 437.345
AO-7 01 Oct 05:48:13 05:54:09 22° 236° (WSW) 06:00:05 29.400- 29.500
O/OREOS (USA 219) 01 Oct 05:52:39 05:57:10 77° 73° (ENE) 06:01:44 437.305
CUTE-I 01 Oct 05:53:44 05:58:42 36° 82° (E) 06:03:35 437.470
Cubesat XI-IV 01 Oct 05:54:44 05:59:44 37° 82° (E) 06:04:38 437.490
LilacSat-2 01 Oct 05:54:53 05:58:29 36° 82° (E) 06:02:00 437.200
AO-85 01 Oct 06:02:19 06:06:30 24° 290° (WNW) 06:10:46 145.980
GONETS M04 01 Oct 06:18:43 06:24:07 18° 100° (E) 06:29:29
GOMX 1 01 Oct 06:22:25 06:27:52 85° 257° (WSW) 06:33:24 467.674
DOVE 4 01 Oct 06:26:00 06:31:10 46° 82° (E) 06:36:15 437.250
STRAND 1 01 Oct 06:27:08 06:32:14 61° 106° (ESE) 06:37:22 437.568
RS-15 01 Oct 06:50:22 06:56:26 17° 280° (W) 07:02:37 29.354- 29.394
BRITE-PL 01 Oct 06:52:46 06:56:38 21° 249° (WSW) 07:00:38 437.365/2234.400
HO-68 01 Oct 06:55:39 07:01:09 23° 86° (E) 07:06:35 435.675
NOAA 18 01 Oct 07:04:57 07:10:28 61° 253° (WSW) 07:15:54 137.9125
NOAA 15 01 Oct 07:05:23 07:10:14 36° 250° (WSW) 07:15:02 137.62
CINEMA 3 01 Oct 07:12:20 07:16:56 35° 84° (E) 07:21:19 145.822/145.860
DANDE 01 Oct 07:15:50 07:16:52 11° 275° (W) 07:17:58 436.750
Cosmos 2499 01 Oct 07:23:22 07:31:39 50° 91° (E) 07:40:09 435.465 / 435.565
COMPASS 1 01 Oct 07:24:06 07:25:49 12° 88° (E) 07:27:33 437.405
PHONESAT 2.4 01 Oct 07:26:25 07:28:49 22° 33° (NNE) 07:31:13 2401.200-2431.200
LilacSat-2 01 Oct 07:30:35 07:32:23 13° 248° (WSW) 07:34:11 437.200
CUTE-I 01 Oct 07:34:13 07:38:30 25° 247° (WSW) 07:42:44 437.470
Cubesat XI-IV 01 Oct 07:35:15 07:39:32 25° 247° (WSW) 07:43:47 437.490
BEESAT 3 01 Oct 07:52:32 07:55:32 21° 128° (SE) 07:58:31 437.485
CUBEBUG 2 01 Oct 07:55:57 07:59:46 25° 85° (E) 08:03:26 437.445
SEEDS 01 Oct 07:57:35 08:01:42 50° 81° (E) 08:05:47 437.485
CUTE 1.7 + AOD 2 01 Oct 08:02:54 08:07:12 89° 80° (E) 08:11:26 437.475
DOVE 4 01 Oct 08:04:36 08:08:26 20° 247° (WSW) 08:12:14 437.250
CANX-2 01 Oct 08:04:57 08:09:13 74° 256° (WSW) 08:13:26 2200.000
UWE-3 01 Oct 08:06:34 08:09:59 21° 86° (E) 08:13:17 435.000/436.395/437.385
STRAND 1 01 Oct 08:09:20 08:11:45 13° 272° (W) 08:14:10 437.568
AAUSAT CUBESAT 2 01 Oct 08:09:37 08:13:27 34° 82° (E) 08:17:15 437.432
GONETS M04 01 Oct 08:11:06 08:19:49 78° 263° (W) 08:28:37
Oscar 11 01 Oct 08:18:46 08:21:33 16° 86° (E) 08:24:18 145.826/435.025
ZACube-1 01 Oct 08:27:30 08:30:56 22° 85° (E) 08:34:15 437.345
UNISAT 6 01 Oct 08:33:51 08:36:46 16° 113° (ESE) 08:39:43 437.425
PRISM 01 Oct 08:34:26 08:38:28 59° 281° (W) 08:42:33 437.425
HO-68 01 Oct 08:42:05 08:49:11 59° 250° (WSW) 08:56:13 435.675
CINEMA 3 01 Oct 08:49:56 08:53:45 22° 248° (WSW) 08:57:28 145.822/145.860
BEESAT 2 01 Oct 08:55:10 08:59:01 49° 122° (ESE) 09:02:49 435.950
COMPASS 1 01 Oct 08:57:35 09:01:34 43° 254° (WSW) 09:05:31 437.405
DELFI C3 01 Oct 08:58:43 09:01:22 17° 86° (E) 09:04:00 145.870
PHONESAT 2.4 01 Oct 09:01:46 09:04:44 59° 199° (SSW) 09:07:41 2401.200-2431.200
ANTELSAT 01 Oct 09:07:26 09:11:45 37° 108° (ESE) 09:16:08 437.575/2403.000
Cosmos 2499 01 Oct 09:17:13 09:24:56 34° 254° (WSW) 09:32:51 435.465 / 435.565
FUNcube-1 01 Oct 09:18:39 09:23:04 86° 78° (ENE) 09:27:18 145.935
TIGRISAT 01 Oct 09:26:31 09:31:08 57° 106° (ESE) 09:35:50 435.000
BEESAT 3 01 Oct 09:29:51 09:33:09 26° 292° (WNW) 09:36:24 437.485
CUBEBUG 2 01 Oct 09:32:30 09:36:16 25° 249° (WSW) 09:39:53 437.445
SEEDS 01 Oct 09:35:25 09:36:54 12° 246° (WSW) 09:38:24 437.485
UWE-3 01 Oct 09:42:32 09:46:25 29° 251° (WSW) 09:50:09 435.000/436.395/437.385
AAUSAT CUBESAT 2 01 Oct 09:46:02 09:48:36 16° 248° (WSW) 09:51:10 437.432
HUMSAT D 01 Oct 09:50:19 09:54:08 34° 82° (E) 09:57:53 437.325/437.525
Oscar 11 01 Oct 09:53:47 09:57:45 35° 252° (WSW) 10:01:41 145.826/435.025
QB50P2 01 Oct 09:56:29 09:59:08 16° 113° (ESE) 10:01:48 145.880/145.840
POLYITAN 1 01 Oct 09:58:38 10:01:18 16° 113° (ESE) 10:03:59 437.675
ZACube-1 01 Oct 10:03:28 10:07:08 26° 250° (WSW) 10:10:43 437.345
UNISAT 6 01 Oct 10:08:33 10:13:02 45° 279° (W) 10:17:39 437.425
AIST 2 01 Oct 10:13:45 10:15:36 13° 133° (SE) 10:17:27 435.215
GONETS M04 01 Oct 10:14:37 10:18:05 13° 243° (WSW) 10:21:35
DUCHIFAT 1 01 Oct 10:29:42 10:33:28 31° 109° (ESE) 10:37:16 145.980
DELFI C3 01 Oct 10:32:43 10:36:12 29° 252° (WSW) 10:39:39 145.870
BEESAT 2 01 Oct 10:35:36 10:36:20 10° 287° (WNW) 10:37:02 435.950
